Weather History for Frederick, OK

Change the Weather History Date:

Sunday, September 2, 2012

  Actual Average (KLTS) Record (KLTS)
Temperature  
Mean Temperature 88 °F -  
Max Temperature 105 °F 90 °F 104 °F (2012)
Min Temperature 73 °F 67 °F 62 °F (2005)
Cooling Degree Days 22    
Growing Degree Days 38 (Base 50)    
Moisture  
Dew Point 61 °F    
Average Humidity 41    
Maximum Humidity 66    
Minimum Humidity 22    
Precipitation  
Precipitation 0.00 in - - ()
Sea Level Pressure  
Sea Level Pressure 29.85 in    
Wind  
Wind Speed 9 mph (SSW)    
Max Wind Speed 16 mph    
Max Gust Speed 21 mph    
Visibility 10 miles    
Events      
Averages and records for this station are not official NWS values.
T = Trace of Precipitation, MM = Missing Value Source: NWS Daily Summary

Daily Weather History Graph

Daily Weather History Graph

Search for Another Location

Airport:

Trip Planner

Search our weather history database for the weather conditions in past years. The results will help you decide how hot, cold, wet, or windy it might be!

Date:

Astronomy

Sep. 02, 2012 Rise Set
Actual Time 7:10 AM CDT 7:59 PM CDT
Civil Twilight 6:44 AM CDT 8:25 PM CDT
Nautical Twilight 6:14 AM CDT 8:55 PM CDT
Astronomical Twilight 5:43 AM CDT 9:26 PM CDT
Moon 8:58 PM CDT (9/2) 9:11 AM CDT (9/2)
Length of Visible Light 13h 40m
Length of Day
12h 49m
Waning Gibbous, 95% of the Moon is Illuminated
Sep 2
Waning Gibbous
Sep 8
Last Quarter
Sep 15
New
Sep 22
First Quarter
Sep 29
Full

Hourly Weather History & Observations

Time (CDT) Temp. Heat Index Dew Point Humidity Pressure Visibility Wind Dir Wind Speed Gust Speed Precip Events Conditions
12:53 AM 84.9 °F 85.4 °F 62.1 °F 46% 29.86 in 10.0 mi South 10.4 mph - N/A   Clear
1:53 AM 81.0 °F 81.9 °F 62.1 °F 52% 29.86 in 10.0 mi South 5.8 mph - N/A   Clear
2:53 AM 80.1 °F 81.2 °F 62.1 °F 54% 29.86 in 10.0 mi SSW 5.8 mph - N/A   Clear
3:53 AM 79.0 °F - 62.1 °F 56% 29.85 in 10.0 mi SSW 6.9 mph - N/A   Clear
4:53 AM 78.1 °F - 61.0 °F 56% 29.85 in 10.0 mi SSW 6.9 mph - N/A   Clear
5:53 AM 77.0 °F - 61.0 °F 58% 29.86 in 10.0 mi SSW 6.9 mph - N/A   Clear
6:53 AM 73.9 °F - 62.1 °F 66% 29.87 in 10.0 mi SW 4.6 mph - N/A   Clear
7:53 AM 75.0 °F - 63.0 °F 66% 29.89 in 10.0 mi SW 4.6 mph - N/A   Clear
8:53 AM 82.0 °F 83.1 °F 63.0 °F 52% 29.91 in 10.0 mi SSW 8.1 mph - N/A   Clear
9:53 AM 87.1 °F 87.8 °F 63.0 °F 44% 29.91 in 10.0 mi WSW 8.1 mph - N/A   Clear
10:53 AM 93.0 °F 94.2 °F 63.0 °F 37% 29.91 in 10.0 mi WSW 12.7 mph - N/A   Clear
11:53 AM 96.1 °F 97.3 °F 63.0 °F 33% 29.90 in 10.0 mi WSW 13.8 mph - N/A   Clear
12:53 PM 98.1 °F 99.6 °F 63.0 °F 31% 29.88 in 10.0 mi SW 8.1 mph - N/A   Clear
1:53 PM 100.0 °F 101.2 °F 61.0 °F 28% 29.86 in 10.0 mi Variable 4.6 mph 18.4 mph N/A   Clear
2:53 PM 100.9 °F 100.5 °F 57.9 °F 24% 29.83 in 10.0 mi South 10.4 mph 20.7 mph N/A   Clear
3:53 PM 100.0 °F 98.3 °F 55.0 °F 22% 29.81 in 10.0 mi South 6.9 mph - N/A   Clear
4:53 PM 102.9 °F 103.6 °F 60.1 °F 24% 29.79 in 10.0 mi South 16.1 mph - N/A   Mostly Cloudy
5:53 PM 100.0 °F 100.7 °F 60.1 °F 27% 29.79 in 10.0 mi SSE 12.7 mph - N/A   Partly Cloudy
6:53 PM 100.9 °F 101.0 °F 59.0 °F 25% 29.79 in 10.0 mi South 15.0 mph - N/A   Scattered Clouds
7:53 PM 96.1 °F 96.0 °F 60.1 °F 30% 29.79 in 10.0 mi SSE 8.1 mph - N/A   Partly Cloudy
8:53 PM 91.0 °F 90.9 °F 61.0 °F 36% 29.80 in 10.0 mi SE 9.2 mph - N/A   Clear
9:53 PM 90.0 °F 90.3 °F 62.1 °F 39% 29.81 in 10.0 mi SSE 11.5 mph - N/A   Clear
10:53 PM 87.1 °F 87.5 °F 62.1 °F 43% 29.81 in 10.0 mi SSE 10.4 mph - N/A   Clear
11:53 PM 84.9 °F 85.4 °F 62.1 °F 46% 29.81 in 10.0 mi SSE 8.1 mph - N/A   Clear